Ithaca, NY

5:57 AM EST on February 24, 2018 (GMT -0500)
Tompkins County

Weather History for KITH - November, 2013

Change the Weather History Date:

Sunday, November 17, 2013

  Actual Average Record
Temperature  
Mean Temperature 52 °F -  
Max Temperature 57 °F 43 °F 69 °F (1990)
Min Temperature 46 °F 28 °F 7 °F (1943)
Degree Days  
Heating Degree Days 14    
Growing Degree Days 2 (Base 50)    
Moisture  
Dew Point 48 °F    
Average Humidity 85    
Maximum Humidity 93    
Minimum Humidity 77    
Precipitation  
Precipitation 0.04 in - - ()
Sea Level Pressure  
Sea Level Pressure 29.92 in    
Wind  
Wind Speed 15 mph (South)    
Max Wind Speed 24 mph    
Max Gust Speed 32 mph    
Visibility 10 miles    
Events Rain    
Averages and records for this station are not official NWS values.
T = Trace of Precipitation, MM = Missing Value Source: NWS Daily Summary

Daily Weather History Graph

Daily Weather History Graph

Search for Another Location

Airport or City:

Trip Planner

Search our weather history database for the weather conditions in past years. The results will help you decide how hot, cold, wet, or windy it might be!

Date:

Astronomy

Nov. 17, 2013 Rise Set
Actual Time 6:59 AM EST 4:41 PM EST
Civil Twilight 6:29 AM EST 5:12 PM EST
Nautical Twilight 5:55 AM EST 5:46 PM EST
Astronomical Twilight 5:21 AM EST 6:19 PM EST
Moon 4:57 PM EST (11/17) 6:51 AM EST (11/17)
Length of Visible Light 10h 42m
Length of Day
9h 41m
Full, 100% of the Moon is Illuminated
Nov 17
Full
Nov 25
Last Quarter
Dec 2
New
Dec 9
First Quarter
Dec 17
Full

Hourly Weather History & Observations

Time (EST) Temp. Dew Point Humidity Pressure Visibility Wind Dir Wind Speed Gust Speed Precip Events Conditions
12:56 AM 46.9 °F 39.9 °F 77% 30.14 in 10.0 mi SSE 13.8 mph - N/A   Clear
1:56 AM 46.9 °F 41.0 °F 80% 30.13 in 10.0 mi SSE 11.5 mph - N/A   Mostly Cloudy
2:56 AM 47.8 °F 43.0 °F 83% 30.14 in 10.0 mi SSE 10.4 mph - N/A   Overcast
3:04 AM 48.2 °F 42.8 °F 82% 30.12 in 10.0 mi SSE 13.8 mph - N/A   Overcast
3:56 AM 47.8 °F 43.9 °F 86% 30.12 in 10.0 mi SSE 12.7 mph - N/A   Overcast
4:56 AM 50.0 °F 45.0 °F 83% 30.08 in 10.0 mi SSE 11.5 mph - N/A   Overcast
5:56 AM 50.9 °F 45.9 °F 83% 30.06 in 10.0 mi South 16.1 mph 19.6 mph N/A   Overcast
6:11 AM 51.8 °F 46.4 °F 82% 30.05 in 10.0 mi South 16.1 mph 23.0 mph N/A   Overcast
6:20 AM 51.8 °F 46.4 °F 82% 30.05 in 10.0 mi South 18.4 mph 24.2 mph N/A   Overcast
6:56 AM 52.0 °F 46.9 °F 83% 30.04 in 10.0 mi South 20.7 mph 24.2 mph N/A   Mostly Cloudy
7:56 AM 52.0 °F 46.9 °F 83% 30.05 in 10.0 mi South 17.3 mph 21.9 mph N/A   Overcast
8:56 AM 52.9 °F 47.8 °F 83% 30.06 in 10.0 mi South 10.4 mph 17.3 mph N/A   Overcast
9:56 AM 52.9 °F 48.9 °F 86% 30.05 in 10.0 mi South 15.0 mph - 0.00 in Rain Light Rain
10:56 AM 54.0 °F 48.9 °F 83% 30.03 in 10.0 mi South 18.4 mph - 0.00 in   Overcast
11:56 AM 54.0 °F 50.0 °F 86% 29.98 in 10.0 mi South 18.4 mph - 0.00 in Rain Light Rain
12:56 PM 54.0 °F 50.0 °F 86% 29.96 in 10.0 mi South 16.1 mph - 0.00 in   Overcast
1:56 PM 54.0 °F 50.0 °F 86% 29.94 in 10.0 mi South 13.8 mph 23.0 mph 0.00 in   Overcast
2:56 PM 54.0 °F 50.9 °F 89% 29.91 in 10.0 mi South 20.7 mph - 0.00 in Rain Light Rain
3:56 PM 54.0 °F 50.9 °F 89% 29.88 in 10.0 mi South 16.1 mph 26.5 mph 0.00 in   Overcast
4:56 PM 54.0 °F 50.9 °F 89% 29.85 in 10.0 mi SSE 16.1 mph - 0.00 in Rain Light Rain Showers
5:56 PM 54.9 °F 50.9 °F 86% 29.83 in 10.0 mi South 21.9 mph 25.3 mph 0.00 in   Overcast
6:56 PM 54.9 °F 50.9 °F 86% 29.76 in 10.0 mi South 18.4 mph 26.5 mph N/A   Overcast
7:56 PM 55.9 °F 52.0 °F 87% 29.70 in 10.0 mi South 21.9 mph 32.2 mph N/A   Overcast
8:56 PM 56.8 °F 52.0 °F 84% 29.65 in 10.0 mi South 21.9 mph 28.8 mph N/A   Overcast
9:56 PM 55.9 °F 52.9 °F 89% 29.62 in 10.0 mi South 24.2 mph 32.2 mph 0.00 in Rain Light Rain Showers
10:56 PM 56.8 °F 52.9 °F 87% 29.55 in 10.0 mi South 20.7 mph 26.5 mph 0.00 in Rain Light Rain
11:06 PM 57.2 °F 53.6 °F 88% 29.56 in 10.0 mi South 18.4 mph 26.5 mph 0.00 in Rain Light Rain
11:56 PM 55.9 °F 54.0 °F 93% 29.52 in 10.0 mi South 19.6 mph 25.3 mph 0.04 in Rain Light Rain